Tracking 35055 objects as of 18-Aug-2026
HD Live streaming from Space Station
objects crossing your sky now

STARLINK-32686

Track STARLINK-32686 now!
10-day predictions
STARLINK-32686 is classified as:


NORAD ID: 62192
Int'l Code: 2024-229A
Launch date: December 4, 2024
Source: United States (US)
Launch site: AIR FORCE EASTERN TEST RANGE (AFETR)
Your satellite tracking list
Your tracking list is empty




NASA's NSSDC Master Catalog

Two Line Element Set (TLE):
1 62192U 24229A   26229.93465494  .00013454  00000-0  49747-3 0  9995
2 62192  43.0002  76.4683 0001470 268.6919  91.3764 15.27584255 95264
Source of the keplerian elements: AFSPC